Home > Weather > Murau > Past weeks

Flag for Austria Past Weather in Murau, Styria, Austria — Yesterday and Last 2 Weeks

Now
64 °F

Passing clouds.


Feels Like: 64 °F
Forecast: 60 / 74 °F
Wind: 2 mph from South

Location: Zeltweg

Current Time: Jul 24, 2016 at 10:26:37 PM

Latest Report: Jul 24, 2016 at 9:50 PM


Visibility: 9 mi

Pressure: 30.12 "Hg (27.27 "Hg at 848m altitude)

Humidity: 94%

Dew Point: 63 °F

Location of MurauLocation

Past Weather in Murau — Graph

°F

Murau Temperature Yesterday

Maximum temperature yesterday: 81 °F (at 4:50 PM)
Minimum temperature yesterday: 61 °F (at 5:50 AM)
Average temperature yesterday: 70 °F

High & Low Weather Summary for the Past Weeks

 TemperatureHumidityPressure
High88 °F (Jul 11, 1:20 PM)100% (Jul 14, 5:50 AM)30.24 "Hg (Jul 14, 5:50 AM)
Low43 °F (Jul 15, 5:50 AM)32% (Jul 20, 3:50 PM)29.86 "Hg (Jul 13, 6:50 PM)
Average68 °F64%30.08 "Hg
* Reported Jul 9 8:50 PM — Jul 24 8:50 PM, Murau, Weather by CustomWeather, © 2016

Note: Actual official high and low records may vary slightly from our data, if they occured in-between our weather recording intervals... More about our weather records

Advertising

Murau Weather History for the Previous 24 Hours

Scroll right to see more
 ConditionsComfort  
Time TempWeatherWind HumidityBarometerVisibility
8:50 PM
Sun, Jul 24
66 °FBroken clouds.3 mph83%30.12 "Hg9 mi
7:50 PM66 °FPartly sunny.3 mph88%30.09 "Hg9 mi
6:50 PM68 °FThunderstorms. Broken clouds.6 mph88%30.09 "Hg6 mi
5:50 PM75 °FThunderstorms. Broken clouds.8 mph61%30.09 "Hg5 mi
4:50 PM77 °FPartly sunny.9 mph61%30.07 "Hg19 mi
3:50 PM81 °FScattered clouds.10 mph51%30.07 "Hg19 mi
2:50 PM82 °FScattered clouds.6 mph45%30.09 "Hg19 mi
1:50 PM82 °FScattered clouds.5 mph40%30.09 "Hg19 mi
12:50 PM81 °FScattered clouds.3 mph45%30.09 "Hg19 mi
11:50 AM77 °FPassing clouds.3 mph54%30.09 "Hg19 mi
10:50 AM75 °FPassing clouds.3 mph57%30.12 "Hg19 mi
9:50 AM72 °FPassing clouds.3 mph69%30.12 "Hg12 mi
8:50 AM70 °FPassing clouds.1 mph78%30.12 "Hg12 mi
7:50 AM64 °FScattered clouds.1 mph83%30.12 "Hg12 mi
6:50 AM63 °FBroken clouds.1 mph94%30.12 "Hg12 mi
5:50 AM64 °FPassing clouds.1 mph83%30.09 "Hg12 mi
4:50 AM64 °FPassing clouds.2 mph88%30.09 "Hg6 mi
10:50 PM
Sat, Jul 23
68 °FPartly cloudy.5 mph83%30.07 "Hg6 mi
Weather by CustomWeather, © 2016

See weather overviewHow to use our weather pages